Location: Aalen
(48.8330°N, 10.1000°E)
Time: 18:56:48
(UTC+02:00)

M-CUBED/EXP-1 PRIME - Pass Details

Date: 24 September 2021
Orbit: 427 x 655 km, 101.7° (Epoch: 19 October)

Event Time Altitude Azimuth Distance (km) Brightness Sun altitude
Rises 06:10:37 0° 17° (NNE) 2,443 ? -10.4°
Reaches altitude 10° 06:12:40 10° 16° (NNE) 1,552 ? -10.1°
Maximum altitude 06:15:56 73° 291° (WNW) 455 ? -9.5°
Drops below altitude 10° 06:19:08 10° 207° (SSW) 1,521 ? -9.0°
Sets 06:21:07 0° 205° (SSW) 2,389 ? -8.7°
